カタログに戻る

STARLINK-5979

運用中通信SSO
NORAD 56345·PAYLOAD·🇺🇸 United States

打ち上げ Apr 27, 2023 から Vandenberg Space Force Base

Loading…

次のパス (今後24時間)

TLE

最新Source: CelesTrak SupGP

元期: Sep 14, 2026, 21:51 UTC

1 56345C 23058AE  26257.91090278  .00687160  00000+0  39877-1 0  2578
2 56345  97.2849 252.0158 0001651  85.8410  10.3895 15.11886102    16

AllMySatでSTARLINK-5979をリアルタイム追跡

Download on the App Store